{"data":{"norad_id":69779,"epoch":"2026-09-20T05:13:37.856928Z","epoch_age_seconds":51017,"freshness":"FRESH","line1":"1 69779U 26151S   26263.21779927  .00001540  00000+0  24919-3 0  9993","line2":"2 69779  51.9000 234.4040 0001247  71.5360 288.5737 14.76569193 12079","mean_motion":14.76569193,"eccentricity":0.0001247,"inclination_deg":51.9,"raan_deg":234.404,"arg_perigee_deg":71.536,"mean_anomaly_deg":288.5737,"bstar":0.00024919,"rev_number":1207,"period_min":97.523367467413,"perigee_km":639.29930471424,"apogee_km":641.04967159938,"semimajor_km":7018.3114881568,"source":"CELESTRAK","updated_at":"2026-09-20T09:00:25.092715Z"}}